Regional Weather Roundup
Issued by NWS

Home | Current Version | Previous Version | Text Only | Print | Product List | Glossary Off
Versions: 1 2 3 4 5 6 7 8 9 10 11 12 13 14 15 16 17 18 19 20 21 22 23 24 25 26 27 28 29 30 31 32 33 34 35 36 37 38 39 40 41 42 43 44 45 46 47 48 49 50

000
ASUS43 KMPX 172001
RWRMN
WEATHER ROUNDUP FOR MINNESOTA
NATIONAL WEATHER SERVICE TWIN CITIES/CHANHASSEN MN
300 PM CDT THU APR 17 2014


NOTE: "FAIR" INDICATES FEW OR NO CLOUDS BELOW 12,000 FEET WITH NO
SIGNIFICANT WEATHER AND/OR OBSTRUCTIONS TO VISIBILITY. N/A MEANS
CURRENT SKY AND/OR WEATHER CONDITIONS ARE NOT AVAILABLE.

MNZ060>063-068>070-172100-
   Twin Cities Metro

CITY           SKY/WX    TMP DP  RH WIND       PRES   REMARKS
TWIN CITIES    PTSUNNY   39  28  64 NW10      30.28S
ST PAUL        PTSUNNY   40  26  57 NW12      30.29R
CRYSTAL        PTSUNNY   39  24  55 NW6       30.27S
BLAINE         PTSUNNY   39  27  60 NW9       30.27R
EDEN PRAIRIE   PTSUNNY   39  28  64 W10       30.27S
LAKEVILLE      CLOUDY    37  28  70 NW7       30.27S
SOUTH ST PAUL  CLOUDY    42  29  60 NW8       30.27S
LAKE ELMO      CLOUDY    37  28  70 N9        30.28R
$$
MNZ001>005-007-008-013>017-022>024-027-028-172100-
   Northwest Minnesota

CITY           SKY/WX    TMP DP  RH WIND       PRES   REMARKS
BEMIDJI        SUNNY     40   2  21 NE8G16    30.26S
HALLOCK        CLOUDY    39   7  26 NW7       30.32F
ROSEAU         SUNNY     39   3  22 CALM      30.31S
WARROAD        SUNNY     36   9  32 E8        30.32S
THIEF RVR FALL SUNNY     39   7  26 W7        30.30F
CROOKSTON      SUNNY     39  14  35 NW5G16    30.32F
FOSSTON        SUNNY     43  12  28 N7        30.28F
DETROIT LAKES  SUNNY     41  10  28 N6        30.28S
MOORHEAD       SUNNY     43  14  31 N7        30.32S
PARK RAPIDS    SUNNY     42   2  18 VRB5      30.24S
$$
MNZ006-009>011-018-025>026-172100-
   North Central Minnesota

CITY           SKY/WX    TMP DP  RH WIND       PRES   REMARKS
BAUDETTE       SUNNY     38  12  34 N12       30.29S
FLAG ISLAND    SUNNY     36   3  25 N8        30.31S
INTL FALLS     PTSUNNY   37  18  46 NE8       30.27S
WASKISH        SUNNY     43  14  31 NW7       30.27S
BIG FORK       CLOUDY    37  19  48 N7        30.26S
LONGVILLE      SUNNY     41  18  38 N6        30.24S
GRAND RAPIDS   CLOUDY    39  19  45 N10       30.24S
CRANE LAKE     CLOUDY    32  25  74 N6        30.28F WCI  26
ORR            CLOUDY    34  19  55 N5        30.24R WCI  30
COOK           CLOUDY    34  21  60 N7        30.26R WCI  28
$$
MNZ012-019>021-037-172100-
   Northeast Minnesota

CITY           SKY/WX    TMP DP  RH WIND       PRES   REMARKS
DULUTH         PTSUNNY   36  23  59 NW13      30.21S
ELY            CLOUDY    30  23  74 N6        30.22S WCI  24
HIBBING        CLOUDY    37  22  54 N12       30.24R
EVELETH        CLOUDY    34  23  64 NW8       30.24S WCI  27
DULUTH HARBOR  CLOUDY    37  28  70 CALM      30.26R
TWO HARBORS    CLOUDY    36  23  60 NW6       30.20S
SILVER BAY     SUNNY     36  28  75 NW7       30.20R
GRAND MARAIS     N/A     33  30  88 E6        30.21R WCI  28
G MARAIS ARPRT LGT SNOW  30  25  80 N7        30.16S VSB 3/4 WCI  23
$$
MNZ029>031-032-039>041-046>048-054>057-064-172100-
   West Central Minnesota

CITY           SKY/WX    TMP DP  RH WIND       PRES   REMARKS
FERGUS FALLS   SUNNY     43  10  26 NW7       30.27S
WHEATON        SUNNY     45  18  33 NW5       30.32S
MORRIS         MOSUNNY   39  18  41 NW7       30.29S
ALEXANDRIA     SUNNY     38  17  42 N7        30.28S
ELBOW LAKE     FAIR      41  15  35 NW10      30.28S
WADENA         SUNNY     39  14  35 NW5       30.25F
GLENWOOD       MOSUNNY   37  19  48 N7        30.29S
APPLETON       MOSUNNY   39  19  45 N10       30.31S
BENSON         PTSUNNY   39  21  48 N3        30.31S
ORTONVILLE     MOSUNNY   37  19  48 W5        30.32S
MADISON        MOSUNNY   39  21  48 N7        30.32S
WILLMAR        FAIR      37  21  52 NW7       30.31S
$$
MNZ033>034-036-042>043-049>051-058-059-172100-
   Central Minnesota

CITY           SKY/WX    TMP DP  RH WIND       PRES   REMARKS
ST CLOUD       SUNNY     39  22  50 NW3       30.27S
SAUK CENTRE    FAIR      38  22  53 NW5       30.28F
PAYNESVILLE    MOSUNNY   36  22  56 NW8       30.30R
AITKIN         PTSUNNY   43  21  42 CALM      30.23R
PINE RIVER     SUNNY     41  21  45 NE9       30.27S
BRAINERD       SUNNY     45  21  38 N9G18     30.26R
STAPLES        SUNNY     43  16  33 NW6       30.25S
LONG PRAIRIE   FAIR      37  21  52 NW9       30.28S
LITTLE FALLS   MOSUNNY   39  21  48 NW5       30.26S
LITCHFIELD     MOSUNNY   37  25  60 W7        30.30R
BUFFALO        SUNNY     38  24  55 NW7       30.29F
MAPLE LAKE     SUNNY     38  26  59 W6        30.29S
$$
MNZ037-044-045-052-053-172100-
   East Central Minnesota

CITY           SKY/WX    TMP DP  RH WIND       PRES   REMARKS
PRINCETON      MOSUNNY   39  25  56 W5        30.28R
MORA           SUNNY     41  23  48 W5        30.27R
CAMBRIDGE      MOSUNNY   39  25  56 N5        30.26R
RUSH CITY      MOSUNNY   38  24  56 CALM      30.27R
MOOSE LAKE     CLOUDY    37  23  56 N7        30.23R
HINCKLEY       FAIR      37  27  65 N6        30.25S
CLOQUET        CLOUDY    36  23  60 NW9       30.23R
MCGREGOR       PTSUNNY   39  27  60 N5        30.24S
$$
MNZ071>073-080-081-089-090-097-098-172100-
   Southwest Minnesota

CITY           SKY/WX    TMP DP  RH WIND       PRES   REMARKS
MONTEVIDEO     MOSUNNY   41  27  56 NW7       30.33S
GRANITE FALLS  MOSUNNY   36  24  62 NW7       30.33F
CANBY          SUNNY     36  19  50 NW5       30.33S
MARSHALL       SUNNY     36  23  60 NW9       30.31F
REDWOOD FALLS  SUNNY     36  27  69 W12       30.31S
OLIVIA         MOSUNNY   34  27  75 W9        30.31S WCI  26
PIPESTONE      SUNNY     37  19  48 NE6       30.28F
WINDOM         MOSUNNY   39  28  65 NW9G17    30.30R
WORTHINGTON    MOSUNNY   37  23  56 NW9       30.31S
JACKSON        MOSUNNY   41  28  60 NW8       30.30R
TRACY          SUNNY     35  28  73 N7        30.31S WCI  29
SLAYTON        SUNNY     36  22  56 N10       30.30S
$$
MNZ065>067-074>077-082>085-091>093-172100-
   South Central Minnesota

CITY           SKY/WX    TMP DP  RH WIND       PRES   REMARKS
MANKATO        CLOUDY    36  27  69 W8        30.30R
NEW ULM        SUNNY     39  28  65 NW8       30.30R
ST JAMES       PTSUNNY   41  30  65 NW8G16    30.31S
FAIRMONT       CLOUDY    39  28  65 N9        30.32R
GLENCOE        SUNNY     38  27  64 NW8       30.29S
FARIBAULT      CLOUDY    37  28  70 W7        30.29R
OWATONNA       CLOUDY    36  28  75 W8        30.29R
WASECA         CLOUDY    37  32  81 NW5       30.30S
ALBERT LEA     CLOUDY    36  30  80 NW6       30.29R
$$
MNZ078>079-086>088-094>096-172100-
   Southeast Minnesota

CITY           SKY/WX    TMP DP  RH WIND       PRES   REMARKS
ROCHESTER      CLOUDY    35  29  78 NW10      30.27R WCI  27
RED WING       CLOUDY    37  28  70 NW8       30.27R
STANTON        CLOUDY    37  29  70 NW7       30.27R
DODGE CENTER   CLOUDY    37  30  75 NW7       30.27R
WINONA         CLOUDY    37  32  81 NW9       30.28R
AUSTIN         CLOUDY    36  28  75 NW8       30.28R
PRESTON        CLOUDY    36  30  80 NW13      30.27R
$$
ABBREVIATIONS USED IN REMARKS
   TC - TEMPERATURES IN CELSIUS
  WCI - WIND CHILL INDEX
   HX - HEAT INDEX
  VSB - VISIBILITY
$$



USA.gov is the U.S. government's official web portal to all federal, state and local government web resources and services.